Simultaneous Nadir Overpasses (SNOs) Predictions

Prediction of SNOs between GOES-16 and METOP-C Satellite Orbit:

Table of predicted SNOs for the next 14.0 days since TLE Epoch: 7/21/2023
Index Date Time (GOES-16) GOES-16 Lat,Lon METOP-C Lat,Lon Distance(km) Time Diff (sec)
1 07/22/2023 02:29:26 0.01, -75.20 -0.03, -75.24 5.93 80
2 07/24/2023 14:30:17 -0.01, -75.22 -0.09, -74.81 47.11 80
3 07/26/2023 02:46:35 0.01, -75.23 -0.92, -79.40 475.54 80
4 07/27/2023 02:28:35 0.01, -75.23 0.20, -74.40 94.73 80
5 07/28/2023 14:44:46 -0.02, -75.25 0.79, -78.97 423.15 80
6 07/29/2023 14:26:45 -0.01, -75.26 -0.32, -73.97 147.15 80
7 07/31/2023 02:43:03 0.02, -75.26 -0.72, -78.56 375.30 80
8 08/01/2023 02:25:02 0.02, -75.27 0.40, -73.56 195.26 80
9 08/02/2023 14:41:13 -0.02, -75.30 0.59, -78.13 321.93 80
10 08/03/2023 14:23:12 -0.01, -75.31 -0.48, -73.12 249.22 80
